NKS1023 KLAS-KLAX

Flight info

Callsign NKS1023
Flight time 0h 37m
Altitude 28000
Route RADYR2 BLAQQ SHTNR ANJLL4
Aircraft A321/M-SDE3FGHIRWY/LB1

Departure

Time 2026-05-06 04:33
Airport Harry Reid International Airport (KLAS)

Arrival

Time 2026-05-06 05:10
Airport Los Angeles International Airport (KLAX)
Time Latitude Longitude Altitude Speed Heading
2026-05-06 03:57 36.08096 -115.14781 2117 ft 0 kts 55°
2026-05-06 04:20 36.08090 -115.14792 2116 ft 3 kts 63°
2026-05-06 04:21 36.08084 -115.14814 2113 ft 3 kts 96°
2026-05-06 04:21 36.08089 -115.14834 2115 ft 3 kts 138°
2026-05-06 04:21 36.08099 -115.14843 2114 ft 1 kts 155°
2026-05-06 04:25 36.08095 -115.14840 2111 ft 3 kts 155°
2026-05-06 04:25 36.08064 -115.14823 2112 ft 5 kts 154°
2026-05-06 04:26 36.08030 -115.14799 2112 ft 6 kts 156°
2026-05-06 04:26 36.07988 -115.14778 2113 ft 7 kts 157°
2026-05-06 04:26 36.07944 -115.14755 2113 ft 7 kts 157°
2026-05-06 04:26 36.07922 -115.14743 2113 ft 0 kts 156°
2026-05-06 04:28 36.07898 -115.14730 2113 ft 8 kts 156°
2026-05-06 04:28 36.07845 -115.14644 2109 ft 18 kts 107°
2026-05-06 04:28 36.07838 -115.14454 2105 ft 25 kts 93°
2026-05-06 04:29 36.07828 -115.14225 2097 ft 29 kts 92°
2026-05-06 04:29 36.07824 -115.13969 2094 ft 30 kts 90°
2026-05-06 04:29 36.07824 -115.13706 2089 ft 32 kts 90°
2026-05-06 04:29 36.07821 -115.13422 2083 ft 34 kts 91°
2026-05-06 04:30 36.07828 -115.13113 2068 ft 38 kts 89°
2026-05-06 04:30 36.07830 -115.12825 2058 ft 30 kts 90°
2026-05-06 04:30 36.07829 -115.12548 2048 ft 32 kts 90°
2026-05-06 04:30 36.07827 -115.12324 2045 ft 25 kts 90°
2026-05-06 04:31 36.07756 -115.12157 2044 ft 23 kts 128°
2026-05-06 04:31 36.07666 -115.12121 2042 ft 9 kts 205°
2026-05-06 04:31 36.07640 -115.12165 2049 ft 3 kts 271°
2026-05-06 04:31 36.07640 -115.12175 2049 ft 0 kts 271°
2026-05-06 04:32 36.07641 -115.12286 2045 ft 44 kts 270°
2026-05-06 04:32 36.07636 -115.12937 2062 ft 107 kts 270°
2026-05-06 04:32 36.07634 -115.14089 2099 ft 156 kts 270°
2026-05-06 04:32 36.07654 -115.15555 2363 ft 175 kts 269°
2026-05-06 04:33 36.07666 -115.17040 3087 ft 174 kts 268°
2026-05-06 04:33 36.07678 -115.18533 3704 ft 176 kts 268°
2026-05-06 04:33 36.07636 -115.20084 4163 ft 186 kts 265°
2026-05-06 04:33 36.07451 -115.21715 4543 ft 199 kts 253°
2026-05-06 04:34 36.07041 -115.23413 4885 ft 213 kts 253°
2026-05-06 04:34 36.06366 -115.25139 5182 ft 235 kts 233°
2026-05-06 04:34 36.05123 -115.26549 5622 ft 252 kts 211°
2026-05-06 04:34 36.03479 -115.27433 6087 ft 268 kts 203°
2026-05-06 04:35 36.01711 -115.28280 6705 ft 277 kts 201°
2026-05-06 04:35 35.99885 -115.29126 7353 ft 283 kts 200°
2026-05-06 04:35 35.97963 -115.29736 7998 ft 290 kts 191°
2026-05-06 04:35 35.95932 -115.30217 8666 ft 296 kts 191°
2026-05-06 04:36 35.93894 -115.30707 9402 ft 300 kts 191°
2026-05-06 04:36 35.91831 -115.31209 10104 ft 305 kts 191°
2026-05-06 04:36 35.89718 -115.31727 10384 ft 325 kts 191°
2026-05-06 04:36 35.87420 -115.32292 10524 ft 348 kts 191°
2026-05-06 04:37 35.84988 -115.32890 10836 ft 363 kts 191°
2026-05-06 04:37 35.82490 -115.33501 11406 ft 369 kts 190°
2026-05-06 04:37 35.79950 -115.34122 11992 ft 374 kts 190°
2026-05-06 04:37 35.77380 -115.34751 12626 ft 379 kts 190°
2026-05-06 04:38 35.74780 -115.35387 13252 ft 383 kts 190°
2026-05-06 04:38 35.72148 -115.36032 13865 ft 388 kts 190°
2026-05-06 04:38 35.69472 -115.36687 14299 ft 398 kts 190°
2026-05-06 04:38 35.66707 -115.37363 14527 ft 411 kts 190°
2026-05-06 04:39 35.63882 -115.38054 14877 ft 416 kts 190°
2026-05-06 04:39 35.61023 -115.38622 15435 ft 419 kts 183°
2026-05-06 04:39 35.58103 -115.38597 16010 ft 421 kts 174°
2026-05-06 04:39 35.55174 -115.38369 16610 ft 424 kts 174°
2026-05-06 04:40 35.52215 -115.38146 17213 ft 427 kts 175°
2026-05-06 04:40 35.49241 -115.37931 17793 ft 430 kts 175°
2026-05-06 04:40 35.46237 -115.37926 18322 ft 435 kts 184°
2026-05-06 04:40 35.43244 -115.38605 18779 ft 440 kts 195°
2026-05-06 04:41 35.40384 -115.39971 19239 ft 444 kts 206°
2026-05-06 04:41 35.37638 -115.41729 19717 ft 447 kts 207°
2026-05-06 04:41 35.34875 -115.43505 20182 ft 450 kts 207°
2026-05-06 04:41 35.32091 -115.45292 20623 ft 453 kts 207°
2026-05-06 04:42 35.29290 -115.47084 21058 ft 457 kts 206°
2026-05-06 04:42 35.26456 -115.48890 21483 ft 460 kts 206°
2026-05-06 04:42 35.23606 -115.50700 21891 ft 463 kts 206°
2026-05-06 04:42 35.20736 -115.52522 22311 ft 467 kts 206°
2026-05-06 04:43 35.17841 -115.54359 22717 ft 470 kts 206°
2026-05-06 04:43 35.14938 -115.56217 23105 ft 474 kts 208°
2026-05-06 04:43 35.12190 -115.58464 23509 ft 478 kts 218°
2026-05-06 04:43 35.09752 -115.61243 23878 ft 481 kts 226°
2026-05-06 04:44 35.07442 -115.64215 24167 ft 485 kts 226°
2026-05-06 04:44 35.05103 -115.67219 24389 ft 490 kts 226°
2026-05-06 04:44 35.02742 -115.70242 24652 ft 495 kts 225°
2026-05-06 04:44 35.00354 -115.73285 25004 ft 496 kts 225°
2026-05-06 04:45 34.97959 -115.76331 25371 ft 498 kts 225°
2026-05-06 04:45 34.95557 -115.79383 25720 ft 500 kts 225°
2026-05-06 04:45 34.93150 -115.82438 26081 ft 501 kts 225°
2026-05-06 04:45 34.90730 -115.85512 26436 ft 503 kts 225°
2026-05-06 04:46 34.88308 -115.88591 26817 ft 505 kts 225°
2026-05-06 04:46 34.85872 -115.91685 27180 ft 506 kts 225°
2026-05-06 04:46 34.83431 -115.94781 27510 ft 509 kts 225°
2026-05-06 04:46 34.80973 -115.97894 27773 ft 512 kts 225°
2026-05-06 04:47 34.78499 -116.01022 27921 ft 513 kts 225°
2026-05-06 04:47 34.76029 -116.04149 27929 ft 512 kts 225°
2026-05-06 04:47 34.73566 -116.07282 27929 ft 512 kts 226°
2026-05-06 04:47 34.71108 -116.10419 27929 ft 512 kts 225°
2026-05-06 04:48 34.68658 -116.13550 27931 ft 512 kts 225°
2026-05-06 04:48 34.66202 -116.16684 27934 ft 512 kts 225°
2026-05-06 04:48 34.63747 -116.19810 27933 ft 512 kts 225°
2026-05-06 04:48 34.61291 -116.22932 27934 ft 512 kts 225°
2026-05-06 04:49 34.58831 -116.26052 27935 ft 512 kts 225°
2026-05-06 04:49 34.56363 -116.29173 27932 ft 512 kts 225°
2026-05-06 04:49 34.53902 -116.32283 27935 ft 512 kts 225°
2026-05-06 04:49 34.51435 -116.35400 27934 ft 512 kts 225°
2026-05-06 04:50 34.48969 -116.38515 27940 ft 512 kts 225°
2026-05-06 04:50 34.46507 -116.41623 27962 ft 511 kts 226°
2026-05-06 04:50 34.44045 -116.44738 27978 ft 510 kts 227°
2026-05-06 04:50 34.41813 -116.48066 27978 ft 509 kts 236°
2026-05-06 04:51 34.40012 -116.51734 27976 ft 505 kts 244°
2026-05-06 04:51 34.38468 -116.55482 27886 ft 491 kts 245°
2026-05-06 04:51 34.36979 -116.59103 27609 ft 483 kts 245°
2026-05-06 04:51 34.35490 -116.62725 27360 ft 479 kts 245°
2026-05-06 04:52 34.34013 -116.66314 27020 ft 473 kts 245°
2026-05-06 04:52 34.32567 -116.69834 26741 ft 463 kts 245°
2026-05-06 04:52 34.31160 -116.73304 26344 ft 456 kts 245°
2026-05-06 04:52 34.29783 -116.76738 25878 ft 452 kts 245°
2026-05-06 04:53 34.28424 -116.80140 25421 ft 447 kts 245°
2026-05-06 04:53 34.27082 -116.83496 24979 ft 442 kts 245°
2026-05-06 04:53 34.25748 -116.86820 24545 ft 437 kts 245°
2026-05-06 04:53 34.24425 -116.90108 24121 ft 433 kts 245°
2026-05-06 04:54 34.23109 -116.93362 23708 ft 428 kts 245°
2026-05-06 04:54 34.21806 -116.96574 23288 ft 424 kts 245°
2026-05-06 04:54 34.20685 -116.99826 22699 ft 415 kts 253°
2026-05-06 04:54 34.19795 -117.03122 21963 ft 410 kts 253°
2026-05-06 04:55 34.18921 -117.06375 21220 ft 404 kts 253°
2026-05-06 04:55 34.18057 -117.09588 20513 ft 398 kts 253°
2026-05-06 04:55 34.17204 -117.12739 19806 ft 392 kts 253°
2026-05-06 04:55 34.16361 -117.15844 19122 ft 387 kts 253°
2026-05-06 04:56 34.15525 -117.18906 18607 ft 382 kts 253°
2026-05-06 04:56 34.14691 -117.21943 18112 ft 379 kts 253°
2026-05-06 04:56 34.13861 -117.24950 17555 ft 378 kts 253°
2026-05-06 04:56 34.13038 -117.27933 17074 ft 373 kts 253°
2026-05-06 04:57 34.12219 -117.30902 16584 ft 370 kts 253°
2026-05-06 04:57 34.11408 -117.33833 16081 ft 368 kts 253°
2026-05-06 04:57 34.10597 -117.36754 15628 ft 364 kts 253°
2026-05-06 04:57 34.09830 -117.39604 15418 ft 353 kts 254°
2026-05-06 04:58 34.09113 -117.42426 14942 ft 350 kts 255°
2026-05-06 04:58 34.08424 -117.45228 14517 ft 348 kts 255°
2026-05-06 04:58 34.07744 -117.48021 14082 ft 346 kts 256°
2026-05-06 04:58 34.07065 -117.50794 13595 ft 344 kts 255°
2026-05-06 04:59 34.06377 -117.53554 13105 ft 342 kts 255°
2026-05-06 04:59 34.05684 -117.56286 12641 ft 340 kts 255°
2026-05-06 04:59 34.04987 -117.59012 12162 ft 337 kts 254°
2026-05-06 04:59 34.04297 -117.61695 11568 ft 334 kts 254°
2026-05-06 05:00 34.03609 -117.64359 11115 ft 333 kts 254°
2026-05-06 05:00 34.02924 -117.67021 10700 ft 331 kts 254°
2026-05-06 05:00 34.02271 -117.69673 10270 ft 329 kts 259°
2026-05-06 05:00 34.01967 -117.72348 10138 ft 316 kts 265°
2026-05-06 05:01 34.01726 -117.74935 9972 ft 307 kts 265°
2026-05-06 05:01 34.01481 -117.77468 9685 ft 302 kts 265°
2026-05-06 05:01 34.01234 -117.79965 9338 ft 299 kts 264°
2026-05-06 05:01 34.00987 -117.82438 8977 ft 297 kts 264°
2026-05-06 05:02 34.00743 -117.84877 8720 ft 288 kts 264°
2026-05-06 05:02 34.00509 -117.87225 8407 ft 275 kts 264°
2026-05-06 05:02 34.00287 -117.89470 8083 ft 266 kts 265°
2026-05-06 05:02 34.00073 -117.91662 7686 ft 262 kts 265°
2026-05-06 05:03 33.99859 -117.93855 7279 ft 265 kts 265°
2026-05-06 05:03 33.99642 -117.96067 6927 ft 265 kts 264°
2026-05-06 05:03 33.99427 -117.98265 6596 ft 264 kts 264°
2026-05-06 05:03 33.99212 -118.00450 6257 ft 262 kts 264°
2026-05-06 05:04 33.98994 -118.02627 5937 ft 261 kts 263°
2026-05-06 05:04 33.98774 -118.04770 5593 ft 252 kts 264°
2026-05-06 05:04 33.98569 -118.06817 5302 ft 243 kts 263°
2026-05-06 05:04 33.98373 -118.08794 5072 ft 227 kts 263°
2026-05-06 05:05 33.98191 -118.10616 4921 ft 216 kts 263°
2026-05-06 05:05 33.98014 -118.12394 4652 ft 212 kts 263°
2026-05-06 05:05 33.97840 -118.14146 4389 ft 210 kts 263°
2026-05-06 05:05 33.97666 -118.15885 4119 ft 210 kts 263°
2026-05-06 05:06 33.97491 -118.17628 3856 ft 209 kts 263°
2026-05-06 05:06 33.97318 -118.19357 3567 ft 208 kts 263°
2026-05-06 05:06 33.97150 -118.21035 3287 ft 195 kts 263°
2026-05-06 05:06 33.96991 -118.22616 3030 ft 186 kts 263°
2026-05-06 05:07 33.96838 -118.24128 2793 ft 178 kts 263°
2026-05-06 05:07 33.96693 -118.25572 2579 ft 174 kts 263°
2026-05-06 05:07 33.96547 -118.27018 2331 ft 166 kts 263°
2026-05-06 05:07 33.96412 -118.28352 2110 ft 160 kts 262°
2026-05-06 05:08 33.96280 -118.29659 1916 ft 152 kts 262°
2026-05-06 05:08 33.96154 -118.30903 1705 ft 147 kts 262°
2026-05-06 05:08 33.96032 -118.32114 1500 ft 145 kts 262°
2026-05-06 05:08 33.95912 -118.33315 1314 ft 144 kts 262°
2026-05-06 05:09 33.95795 -118.34513 1110 ft 144 kts 262°
2026-05-06 05:09 33.95667 -118.35701 929 ft 143 kts 261°
2026-05-06 05:09 33.95539 -118.36892 712 ft 143 kts 262°
2026-05-06 05:09 33.95422 -118.38067 532 ft 141 kts 262°
2026-05-06 05:10 33.95298 -118.39243 299 ft 142 kts 263°
2026-05-06 05:10 33.95184 -118.40415 112 ft 142 kts 263°
2026-05-06 05:10 33.95086 -118.41380 95 ft 78 kts 263°
2026-05-06 05:10 33.95048 -118.41756 96 ft 30 kts 263°
2026-05-06 05:11 33.94998 -118.42113 94 ft 27 kts 238°
2026-05-06 05:11 33.94924 -118.42172 94 ft 11 kts 208°
2026-05-06 05:11 33.94891 -118.42238 96 ft 10 kts 241°
2026-05-06 05:11 33.94833 -118.42275 97 ft 12 kts 181°
2026-05-06 05:12 33.94717 -118.42272 97 ft 19 kts 178°
2026-05-06 05:12 33.94686 -118.42220 97 ft 6 kts 81°
2026-05-06 05:12 33.94695 -118.42122 94 ft 17 kts 83°
2026-05-06 05:12 33.94709 -118.41973 93 ft 19 kts 84°
2026-05-06 05:13 33.94699 -118.41831 94 ft 15 kts 133°
2026-05-06 05:13 33.94636 -118.41741 95 ft 13 kts 125°
2026-05-06 05:13 33.94572 -118.41712 93 ft 8 kts 168°
2026-05-06 05:13 33.94513 -118.41698 93 ft 9 kts 168°
2026-05-06 05:14 33.94443 -118.41682 93 ft 11 kts 170°
2026-05-06 05:14 33.94361 -118.41675 94 ft 12 kts 175°
2026-05-06 05:14 33.94355 -118.41675 95 ft 1 kts 175°
2026-05-06 05:14 33.94347 -118.41670 93 ft 2 kts 145°
2026-05-06 05:15 33.94343 -118.41639 95 ft 6 kts 85°
2026-05-06 05:15 33.94348 -118.41584 93 ft 4 kts 83°
2026-05-06 05:15 33.94349 -118.41579 93 ft 0 kts 83°